START_TIME,STEP,MOV.,AL01,t_acc.,AL02,t_acc.,E37,t_acc.,H21,t_acc.
1979-07-24 18:00:33.760 ,1,1,0.,24.0,0.,24.0,1.,24.0,0.,24.0
1979-07-24 18:00:57.760 ,2,1,2.,24.0,0.,24.0,0.,24.0,0.,24.0
1979-07-24 18:01:21.760 ,6,1,0.,24.0,0.,24.0,0.,24.0,0.,24.0
1979-07-24 18:01:45.760 ,5,1,25.,24.0,0.,24.0,0.,24.0,0.,24.0
1979-07-24 18:02:09.760 ,1,1,0.,24.0,1.,24.0,0.,24.0,0.,24.0
1979-07-24 18:02:33.760 ,2,1,2.,24.0,0.,24.0,1.,24.0,0.,24.0
1979-07-24 18:02:57.760 ,6,1,1.,24.0,0.,24.0,0.,24.0,0.,24.0
1979-07-24 18:03:21.760 ,5,1,20.,24.0,1.,24.0,1.,24.0,0.,24.0
1979-07-24 18:03:45.760 ,1,1,0.,24.0,0.,24.0,1.,24.0,0.,24.0
1979-07-24 18:04:09.760 ,2,1,1.,24.0,0.,24.0,1.,24.0,0.,24.0
1979-07-24 18:04:33.760 ,6,1,0.,24.0,1.,24.0,1.,24.0,0.,24.0
1979-07-24 18:04:57.760 ,5,1,12.,24.0,0.,24.0,0.,24.0,0.,24.0
1979-07-24 18:05:21.760 ,1,1,0.,24.0,0.,24.0,0.,24.0,0.,24.0
1979-07-24 18:05:45.760 ,0,0,2.,24.0,1.,24.0,0.,24.0,0.,24.0
1979-07-24 18:06:09.760 ,0,0,0.,24.0,1.,24.0,0.,24.0,0.,24.0
1979-07-24 18:06:33.760 ,5,1,14.,24.0,0.,24.0,1.,24.0,0.,24.0
1979-07-24 18:06:57.760 ,5,0,0.,24.0,0.,24.0,0.,24.0,0.,24.0
1979-07-24 18:07:21.760 ,4,1,0.,24.0,0.,24.0,1.,24.0,0.,24.0
1979-07-24 18:07:45.760 ,4,0,0.,24.0,0.,24.0,0.,24.0,0.,24.0
1979-07-24 18:08:09.760 ,3,1,1.,24.0,0.,24.0,0.,24.0,0.,24.0
1979-07-24 18:08:33.760 ,3,0,0.,24.0,0.,24.0,0.,24.0,0.,24.0
1979-07-24 18:08:57.760 ,2,1,1.,24.0,0.,24.0,0.,24.0,0.,24.0
1979-07-24 18:09:21.760 ,2,0,0.,24.0,0.,24.0,0.,24.0,0.,24.0
1979-07-24 18:09:45.760 ,1,1,0.,24.0,0.,24.0,1.,24.0,0.,24.0
1979-07-24 18:10:09.760 ,1,0,0.,24.0,0.,24.0,1.,24.0,0.,24.0
1979-07-24 18:10:33.760 ,0,1,0.,24.0,0.,24.0,1.,24.0,0.,24.0
1979-07-24 18:10:57.760 ,0,0,2.,24.0,0.,24.0,0.,24.0,0.,24.0
1979-07-24 18:11:21.760 ,0,1,1.,24.0,0.,24.0,2.,24.0,0.,24.0
1979-07-24 18:11:45.760 ,0,0,2.,24.0,1.,24.0,0.,24.0,0.,24.0
1979-07-24 18:12:09.760 ,1,1,0.,24.0,0.,24.0,3.,24.0,0.,24.0
1979-07-24 18:12:33.760 ,1,0,0.,24.0,0.,24.0,1.,24.0,0.,24.0
1979-07-24 18:12:57.760 ,2,1,0.,24.0,0.,24.0,1.,24.0,0.,24.0
1979-07-24 18:13:21.760 ,2,0,0.,24.0,0.,24.0,0.,24.0,0.,24.0
1979-07-24 18:13:45.760 ,3,1,0.,24.0,0.,24.0,0.,24.0,0.,24.0
1979-07-24 18:14:09.760 ,3,0,0.,24.0,0.,24.0,1.,24.0,0.,24.0
1979-07-24 18:14:33.760 ,4,1,0.,24.0,0.,24.0,1.,24.0,0.,24.0
1979-07-24 18:14:57.760 ,4,0,0.,24.0,0.,24.0,3.,24.0,0.,24.0
1979-07-24 18:15:21.760 ,5,1,0.,24.0,0.,24.0,1.,24.0,0.,24.0
1979-07-24 18:15:45.760 ,5,0,0.,24.0,0.,24.0,1.,24.0,0.,24.0
1979-07-24 18:16:09.760 ,6,1,1.,24.0,0.,24.0,0.,24.0,0.,24.0
1979-07-24 18:16:33.760 ,6,0,6.,24.0,0.,24.0,1.,24.0,0.,24.0
1979-07-24 18:16:57.760 ,7,1,3.,24.0,0.,24.0,0.,24.0,0.,24.0
1979-07-24 18:17:21.760 ,7,0,41.,24.0,0.,24.0,1.,24.0,0.,24.0
1979-07-24 18:17:45.760 ,7,1,35.,24.0,0.,24.0,1.,24.0,0.,24.0
1979-07-24 18:18:09.760 ,7,0,43.,24.0,0.,24.0,0.,24.0,0.,24.0
1979-07-24 18:18:33.760 ,6,1,28.,24.0,0.,24.0,0.,24.0,0.,24.0
1979-07-24 18:18:57.760 ,6,0,0.,24.0,0.,24.0,1.,24.0,0.,24.0
1979-07-24 18:19:21.760 ,5,1,0.,24.0,1.,24.0,0.,24.0,0.,24.0
1979-07-24 18:19:45.760 ,5,0,0.,24.0,0.,24.0,0.,24.0,0.,24.0
1979-07-24 18:20:09.760 ,4,1,2.,24.0,0.,24.0,0.,24.0,0.,24.0
1979-07-24 18:20:33.760 ,4,0,0.,24.0,0.,24.0,1.,24.0,0.,24.0
1979-07-24 18:20:57.760 ,3,1,0.,24.0,0.,24.0,2.,24.0,0.,24.0
1979-07-24 18:21:21.760 ,3,0,0.,24.0,0.,24.0,0.,24.0,0.,24.0
1979-07-24 18:21:45.760 ,2,1,0.,24.0,0.,24.0,0.,24.0,0.,24.0
1979-07-24 18:22:09.760 ,2,0,0.,24.0,0.,24.0,0.,24.0,0.,24.0
1979-07-24 18:22:33.760 ,1,1,0.,24.0,0.,24.0,0.,24.0,0.,24.0
1979-07-24 18:22:57.760 ,1,0,0.,24.0,0.,24.0,0.,24.0,0.,24.0
1979-07-24 18:23:21.760 ,0,1,0.,24.0,0.,24.0,1.,24.0,0.,24.0
1979-07-24 18:23:45.760 ,0,0,0.,24.0,0.,24.0,0.,24.0,0.,24.0
1979-07-24 18:24:09.760 ,0,1,0.,24.0,0.,24.0,0.,24.0,0.,24.0
1979-07-24 18:24:33.760 ,0,0,0.,24.0,1.,24.0,1.,24.0,0.,24.0
1979-07-24 18:24:57.760 ,1,1,1.,24.0,0.,24.0,0.,24.0,0.,24.0
1979-07-24 18:25:21.760 ,1,0,0.,24.0,0.,24.0,0.,24.0,0.,24.0
1979-07-24 18:25:45.760 ,2,1,0.,24.0,0.,24.0,2.,24.0,0.,24.0
1979-07-24 18:26:09.760 ,2,0,0.,24.0,0.,24.0,0.,24.0,0.,24.0
1979-07-24 18:26:33.760 ,3,1,0.,24.0,0.,24.0,1.,24.0,0.,24.0
1979-07-24 18:26:57.760 ,3,0,0.,24.0,0.,24.0,0.,24.0,0.,24.0
1979-07-24 18:27:21.760 ,4,1,0.,24.0,0.,24.0,0.,24.0,0.,24.0
1979-07-24 18:27:45.760 ,4,0,0.,24.0,0.,24.0,0.,24.0,0.,24.0
1979-07-24 18:28:09.760 ,5,1,1.,24.0,1.,24.0,0.,24.0,0.,24.0
1979-07-24 18:28:33.760 ,5,0,1.,24.0,0.,24.0,1.,24.0,0.,24.0
1979-07-24 18:28:57.760 ,6,1,0.,24.0,0.,24.0,2.,24.0,0.,24.0
1979-07-24 18:29:21.760 ,6,0,0.,24.0,0.,24.0,1.,24.0,0.,24.0
1979-07-24 18:29:45.760 ,7,1,8.,24.0,0.,24.0,1.,24.0,0.,24.0
1979-07-24 18:30:09.760 ,7,0,24.,24.0,0.,24.0,0.,24.0,0.,24.0
1979-07-24 18:30:33.760 ,7,1,22.,24.0,0.,24.0,1.,24.0,0.,24.0
1979-07-24 18:30:57.760 ,7,0,29.,24.0,0.,24.0,0.,24.0,0.,24.0
1979-07-24 18:31:21.760 ,6,1,23.,24.0,0.,24.0,1.,24.0,0.,24.0
1979-07-24 18:31:45.760 ,6,0,1.,24.0,0.,24.0,0.,24.0,0.,24.0
1979-07-24 18:32:09.760 ,5,1,0.,24.0,2.,24.0,1.,24.0,0.,24.0
1979-07-24 18:32:33.760 ,5,0,0.,24.0,1.,24.0,0.,24.0,0.,24.0
1979-07-24 18:32:57.760 ,4,1,0.,24.0,0.,24.0,0.,24.0,0.,24.0
1979-07-24 18:33:21.760 ,4,0,0.,24.0,0.,24.0,1.,24.0,0.,24.0
1979-07-24 18:33:45.760 ,3,1,0.,24.0,0.,24.0,1.,24.0,0.,24.0
1979-07-24 18:34:09.760 ,3,0,0.,24.0,0.,24.0,1.,24.0,0.,24.0
1979-07-24 18:34:33.760 ,2,1,0.,24.0,0.,24.0,0.,24.0,0.,24.0
1979-07-24 18:34:57.760 ,2,0,0.,24.0,0.,24.0,0.,24.0,0.,24.0
1979-07-24 18:35:21.760 ,1,1,0.,24.0,0.,24.0,0.,24.0,0.,24.0
1979-07-24 18:35:45.760 ,1,0,0.,24.0,0.,24.0,1.,24.0,0.,24.0
1979-07-24 18:36:09.760 ,0,1,1.,24.0,0.,24.0,0.,24.0,0.,24.0
1979-07-24 18:36:33.760 ,0,0,1.,24.0,0.,24.0,1.,24.0,0.,24.0
1979-07-24 18:36:57.760 ,0,1,2.,24.0,1.,24.0,0.,24.0,0.,24.0
1979-07-24 18:37:21.760 ,0,0,0.,24.0,0.,24.0,0.,24.0,0.,24.0
1979-07-24 18:37:45.760 ,1,1,1.,24.0,0.,24.0,0.,24.0,0.,24.0
1979-07-24 18:38:09.760 ,1,0,0.,24.0,0.,24.0,1.,24.0,0.,24.0
1979-07-24 18:38:33.760 ,2,1,0.,24.0,0.,24.0,0.,24.0,0.,24.0
1979-07-24 18:38:57.760 ,2,0,0.,24.0,1.,24.0,1.,24.0,0.,24.0
1979-07-24 18:39:21.760 ,3,1,0.,24.0,0.,24.0,1.,24.0,0.,24.0
1979-07-24 18:39:45.760 ,3,0,1.,24.0,0.,24.0,3.,24.0,0.,24.0
1979-07-24 18:40:09.760 ,4,1,0.,24.0,0.,24.0,0.,24.0,0.,24.0
1979-07-24 18:40:33.760 ,4,0,0.,24.0,0.,24.0,0.,24.0,0.,24.0
1979-07-24 18:40:57.760 ,5,1,1.,24.0,0.,24.0,1.,24.0,0.,24.0
1979-07-24 18:41:21.760 ,5,0,0.,24.0,0.,24.0,2.,24.0,0.,24.0
1979-07-24 18:41:45.760 ,6,1,4.,24.0,0.,24.0,1.,24.0,0.,24.0
1979-07-24 18:42:09.760 ,6,0,2.,24.0,1.,24.0,0.,24.0,0.,24.0
1979-07-24 18:42:33.760 ,7,0,8.,24.0,1.,24.0,0.,24.0,0.,24.0
1979-07-24 18:42:57.760 ,7,0,31.,24.0,0.,24.0,0.,24.0,0.,24.0
1979-07-24 18:43:21.760 ,5,1,13.,24.0,0.,24.0,0.,24.0,0.,24.0
1979-07-24 18:43:45.760 ,1,1,0.,24.0,0.,24.0,1.,24.0,0.,24.0
1979-07-24 18:44:09.760 ,2,1,0.,24.0,0.,24.0,0.,24.0,0.,24.0
1979-07-24 18:44:33.760 ,6,1,2.,24.0,1.,24.0,1.,24.0,0.,24.0
1979-07-24 18:44:57.760 ,5,1,20.,24.0,1.,24.0,0.,24.0,0.,24.0
1979-07-24 18:45:21.760 ,1,1,0.,24.0,0.,24.0,0.,24.0,0.,24.0
1979-07-24 18:45:45.760 ,2,1,1.,24.0,0.,24.0,1.,24.0,0.,24.0
1979-07-24 18:46:09.760 ,6,1,1.,24.0,0.,24.0,0.,24.0,0.,24.0
1979-07-24 18:46:33.760 ,5,1,21.,24.0,0.,24.0,0.,24.0,0.,24.0
1979-07-24 18:46:57.760 ,1,1,0.,24.0,0.,24.0,2.,24.0,0.,24.0
1979-07-24 18:47:21.760 ,2,1,0.,24.0,0.,24.0,1.,24.0,0.,24.0
1979-07-24 18:47:45.760 ,6,1,0.,24.0,0.,24.0,0.,24.0,0.,24.0
1979-07-24 18:48:09.760 ,5,1,12.,24.0,0.,24.0,1.,24.0,0.,24.0
1979-07-24 18:48:33.760 ,1,1,0.,24.0,0.,24.0,0.,24.0,0.,24.0
1979-07-24 18:48:57.760 ,2,1,0.,24.0,0.,24.0,0.,24.0,0.,24.0
1979-07-24 18:49:21.760 ,6,1,1.,24.0,0.,24.0,0.,24.0,0.,24.0
1979-07-24 18:49:45.760 ,5,1,18.,24.0,0.,24.0,0.,24.0,0.,24.0
1979-07-24 18:50:09.760 ,1,1,0.,24.0,0.,24.0,1.,24.0,0.,24.0
1979-07-24 18:50:33.760 ,2,1,1.,24.0,0.,24.0,1.,24.0,0.,24.0
1979-07-24 18:50:57.760 ,6,1,1.,24.0,0.,24.0,0.,24.0,0.,24.0
1979-07-24 18:51:21.760 ,5,1,15.,24.0,0.,24.0,0.,24.0,0.,24.0
1979-07-24 18:51:45.760 ,1,1,0.,24.0,0.,24.0,1.,24.0,0.,24.0
1979-07-24 18:52:09.760 ,2,1,0.,24.0,0.,24.0,0.,24.0,0.,24.0
1979-07-24 18:52:33.760 ,6,1,1.,24.0,0.,24.0,1.,24.0,0.,24.0
1979-07-24 18:52:57.760 ,5,1,16.,24.0,1.,24.0,2.,24.0,0.,24.0
1979-07-24 18:53:21.760 ,1,1,0.,24.0,0.,24.0,1.,24.0,0.,24.0
1979-07-24 18:53:45.760 ,0,0,1.,24.0,0.,24.0,0.,24.0,0.,24.0
1979-07-24 18:54:09.760 ,0,0,0.,24.0,0.,24.0,0.,24.0,0.,24.0
1979-07-24 18:54:33.760 ,5,1,10.,24.0,0.,24.0,0.,24.0,0.,24.0
1979-07-24 18:54:57.760 ,5,0,2.,24.0,0.,24.0,0.,24.0,0.,24.0
1979-07-24 18:55:21.760 ,4,1,0.,24.0,0.,24.0,0.,24.0,0.,24.0
1979-07-24 18:55:45.760 ,4,0,0.,24.0,1.,24.0,1.,24.0,0.,24.0
1979-07-24 18:56:09.760 ,3,1,0.,24.0,0.,24.0,0.,24.0,0.,24.0
1979-07-24 18:56:33.760 ,3,0,0.,24.0,0.,24.0,1.,24.0,0.,24.0
1979-07-24 18:56:57.760 ,2,1,0.,24.0,0.,24.0,1.,24.0,0.,24.0
1979-07-24 18:57:21.760 ,2,0,0.,24.0,0.,24.0,0.,24.0,0.,24.0
1979-07-24 18:57:45.760 ,1,1,0.,24.0,0.,24.0,0.,24.0,0.,24.0
1979-07-24 18:58:09.760 ,1,0,1.,24.0,0.,24.0,1.,24.0,0.,24.0
1979-07-24 18:58:33.760 ,0,1,0.,24.0,0.,24.0,1.,24.0,0.,24.0
1979-07-24 18:58:57.760 ,0,0,1.,24.0,0.,24.0,0.,24.0,0.,24.0
1979-07-24 18:59:21.760 ,0,1,1.,24.0,0.,24.0,2.,24.0,0.,24.0
1979-07-24 18:59:45.760 ,0,0,0.,24.0,0.,24.0,0.,24.0,0.,24.0
1979-07-24 19:00:09.760 ,1,1,1.,24.0,0.,24.0,1.,24.0,0.,24.0
1979-07-24 19:00:33.760 ,1,0,1.,24.0,0.,24.0,0.,24.0,0.,24.0
1979-07-24 19:00:57.760 ,2,1,0.,24.0,0.,24.0,2.,24.0,0.,24.0
1979-07-24 19:01:21.760 ,2,0,0.,24.0,0.,24.0,0.,24.0,0.,24.0
1979-07-24 19:01:45.760 ,3,1,0.,24.0,0.,24.0,0.,24.0,0.,24.0
1979-07-24 19:02:09.760 ,3,0,1.,24.0,1.,24.0,2.,24.0,0.,24.0
1979-07-24 19:02:33.760 ,4,1,0.,24.0,0.,24.0,2.,24.0,0.,24.0
1979-07-24 19:02:57.760 ,4,0,0.,24.0,0.,24.0,1.,24.0,0.,24.0
1979-07-24 19:03:21.760 ,5,1,1.,24.0,1.,24.0,2.,24.0,0.,24.0
1979-07-24 19:03:45.760 ,5,0,1.,24.0,0.,24.0,1.,24.0,0.,24.0
1979-07-24 19:04:09.760 ,6,1,1.,24.0,0.,24.0,0.,24.0,0.,24.0
1979-07-24 19:04:33.760 ,6,0,4.,24.0,1.,24.0,1.,24.0,0.,24.0
1979-07-24 19:04:57.760 ,7,1,13.,24.0,0.,24.0,0.,24.0,0.,24.0
1979-07-24 19:05:21.760 ,7,0,39.,24.0,0.,24.0,0.,24.0,0.,24.0
1979-07-24 19:05:45.760 ,7,1,31.,24.0,0.,24.0,1.,24.0,0.,24.0
1979-07-24 19:06:09.760 ,7,0,29.,24.0,0.,24.0,0.,24.0,0.,24.0
1979-07-24 19:06:33.760 ,6,1,17.,24.0,0.,24.0,0.,24.0,0.,24.0
1979-07-24 19:06:57.760 ,6,0,4.,24.0,0.,24.0,1.,24.0,0.,24.0
1979-07-24 19:07:21.760 ,5,1,3.,24.0,0.,24.0,0.,24.0,0.,24.0
1979-07-24 19:07:45.760 ,5,0,3.,24.0,1.,24.0,0.,24.0,0.,24.0
1979-07-24 19:08:09.760 ,4,1,1.,24.0,0.,24.0,1.,24.0,0.,24.0
1979-07-24 19:08:33.760 ,4,0,0.,24.0,0.,24.0,1.,24.0,0.,24.0
1979-07-24 19:08:57.760 ,3,1,0.,24.0,0.,24.0,3.,24.0,0.,24.0
1979-07-24 19:09:21.760 ,3,0,2.,24.0,0.,24.0,1.,24.0,0.,24.0
1979-07-24 19:09:45.760 ,2,1,0.,24.0,0.,24.0,0.,24.0,0.,24.0
1979-07-24 19:10:09.760 ,2,0,0.,24.0,0.,24.0,0.,24.0,0.,24.0
1979-07-24 19:10:33.760 ,1,1,0.,24.0,0.,24.0,1.,24.0,0.,24.0
1979-07-24 19:10:57.760 ,1,0,0.,24.0,0.,24.0,0.,24.0,0.,24.0
1979-07-24 19:11:21.760 ,0,1,1.,24.0,0.,24.0,1.,24.0,0.,24.0
1979-07-24 19:11:45.760 ,0,0,1.,24.0,0.,24.0,1.,24.0,0.,24.0
1979-07-24 19:12:09.760 ,0,1,3.,24.0,0.,24.0,0.,24.0,0.,24.0
1979-07-24 19:12:33.760 ,0,0,4.,24.0,1.,24.0,0.,24.0,0.,24.0
1979-07-24 19:12:57.760 ,1,1,1.,24.0,0.,24.0,0.,24.0,0.,24.0
1979-07-24 19:13:21.760 ,1,0,0.,24.0,0.,24.0,1.,24.0,0.,24.0
1979-07-24 19:13:45.760 ,2,1,0.,24.0,0.,24.0,0.,24.0,0.,24.0
1979-07-24 19:14:09.760 ,2,0,0.,24.0,0.,24.0,3.,24.0,0.,24.0
1979-07-24 19:14:33.760 ,3,1,0.,24.0,0.,24.0,0.,24.0,0.,24.0
1979-07-24 19:14:57.760 ,3,0,0.,24.0,0.,24.0,0.,24.0,0.,24.0
1979-07-24 19:15:21.760 ,4,1,0.,24.0,0.,24.0,0.,24.0,0.,24.0
1979-07-24 19:15:45.760 ,4,0,0.,24.0,0.,24.0,0.,24.0,0.,24.0
1979-07-24 19:16:09.760 ,5,1,1.,24.0,0.,24.0,2.,24.0,0.,24.0
1979-07-24 19:16:33.760 ,5,0,3.,24.0,0.,24.0,1.,24.0,0.,24.0
1979-07-24 19:16:57.760 ,6,1,1.,24.0,0.,24.0,0.,24.0,0.,24.0
1979-07-24 19:17:21.760 ,6,0,4.,24.0,1.,24.0,1.,24.0,0.,24.0
1979-07-24 19:17:45.760 ,7,1,7.,24.0,0.,24.0,0.,24.0,0.,24.0
1979-07-24 19:18:09.760 ,7,0,32.,24.0,0.,24.0,1.,24.0,0.,24.0
1979-07-24 19:18:33.760 ,7,1,34.,24.0,0.,24.0,3.,24.0,0.,24.0
1979-07-24 19:18:57.760 ,7,0,24.,24.0,0.,24.0,1.,24.0,0.,24.0
1979-07-24 19:19:21.760 ,6,1,25.,24.0,0.,24.0,1.,24.0,0.,24.0
1979-07-24 19:19:45.760 ,6,0,1.,24.0,2.,24.0,1.,24.0,0.,24.0
1979-07-24 19:20:09.760 ,5,1,3.,24.0,0.,24.0,2.,24.0,0.,24.0
1979-07-24 19:20:33.760 ,5,0,0.,24.0,0.,24.0,1.,24.0,0.,24.0
1979-07-24 19:20:57.760 ,4,1,4.,24.0,3.,24.0,0.,24.0,0.,24.0
1979-07-24 19:21:21.760 ,4,0,1.,24.0,0.,24.0,2.,24.0,0.,24.0
1979-07-24 19:21:45.760 ,3,1,0.,24.0,0.,24.0,0.,24.0,0.,24.0
1979-07-24 19:22:09.760 ,3,0,1.,24.0,0.,24.0,1.,24.0,0.,24.0
1979-07-24 19:22:33.760 ,2,1,0.,24.0,0.,24.0,1.,24.0,0.,24.0
1979-07-24 19:22:57.760 ,2,0,0.,24.0,0.,24.0,0.,24.0,0.,24.0
1979-07-24 19:23:21.760 ,1,1,0.,24.0,0.,24.0,0.,24.0,0.,24.0
1979-07-24 19:23:45.760 ,1,0,0.,24.0,0.,24.0,0.,24.0,0.,24.0
1979-07-24 19:24:09.760 ,0,1,0.,24.0,0.,24.0,0.,24.0,0.,24.0
1979-07-24 19:24:33.760 ,0,0,4.,24.0,1.,24.0,2.,24.0,0.,24.0
1979-07-24 19:24:57.760 ,0,1,5.,24.0,0.,24.0,0.,24.0,0.,24.0
1979-07-24 19:25:21.760 ,0,0,4.,24.0,0.,24.0,0.,24.0,0.,24.0
1979-07-24 19:25:45.760 ,1,1,5.,24.0,1.,24.0,1.,24.0,0.,24.0
1979-07-24 19:26:09.760 ,1,0,1.,24.0,0.,24.0,0.,24.0,0.,24.0
1979-07-24 19:26:33.760 ,2,1,0.,24.0,0.,24.0,1.,24.0,0.,24.0
1979-07-24 19:26:57.760 ,2,0,1.,24.0,0.,24.0,0.,24.0,0.,24.0
1979-07-24 19:27:21.760 ,3,1,0.,24.0,0.,24.0,1.,24.0,0.,24.0
1979-07-24 19:27:45.760 ,3,0,0.,24.0,0.,24.0,2.,24.0,0.,24.0
1979-07-24 19:28:09.760 ,4,1,0.,24.0,0.,24.0,0.,24.0,0.,24.0
1979-07-24 19:28:33.760 ,4,0,0.,24.0,1.,24.0,2.,24.0,0.,24.0
1979-07-24 19:28:57.760 ,5,1,0.,24.0,0.,24.0,0.,24.0,0.,24.0
1979-07-24 19:29:21.760 ,5,0,3.,24.0,1.,24.0,2.,24.0,0.,24.0
1979-07-24 19:29:45.760 ,6,1,0.,24.0,1.,24.0,0.,24.0,0.,24.0
1979-07-24 19:30:09.760 ,6,0,1.,24.0,0.,24.0,1.,24.0,0.,24.0
1979-07-24 19:30:33.760 ,7,0,12.,24.0,0.,24.0,0.,24.0,0.,24.0
1979-07-24 19:30:57.760 ,7,0,32.,24.0,0.,24.0,0.,24.0,0.,24.0
1979-07-24 19:31:21.760 ,5,1,14.,24.0,0.,24.0,0.,24.0,0.,24.0
1979-07-24 19:31:45.760 ,1,1,0.,24.0,0.,24.0,0.,24.0,0.,24.0
1979-07-24 19:32:09.760 ,2,1,5.,24.0,0.,24.0,0.,24.0,0.,24.0
1979-07-24 19:32:33.760 ,6,1,2.,24.0,1.,24.0,0.,24.0,0.,24.0
1979-07-24 19:32:57.760 ,5,1,21.,24.0,0.,24.0,0.,24.0,0.,24.0
1979-07-24 19:33:21.760 ,1,1,1.,24.0,0.,24.0,0.,24.0,0.,24.0
1979-07-24 19:33:45.760 ,2,1,3.,24.0,0.,24.0,1.,24.0,0.,24.0
1979-07-24 19:34:09.760 ,6,1,1.,24.0,1.,24.0,0.,24.0,0.,24.0
1979-07-24 19:34:33.760 ,5,1,16.,24.0,0.,24.0,0.,24.0,0.,24.0
1979-07-24 19:34:57.760 ,1,1,0.,24.0,0.,24.0,1.,24.0,0.,24.0
1979-07-24 19:35:21.760 ,2,1,6.,24.0,0.,24.0,0.,24.0,0.,24.0
1979-07-24 19:35:45.760 ,6,1,0.,24.0,0.,24.0,1.,24.0,0.,24.0
1979-07-24 19:36:09.760 ,5,1,16.,24.0,0.,24.0,0.,24.0,0.,24.0
1979-07-24 19:36:09.760 ,5,1,16.,24.0,0.,24.0,0.,24.0,0.,24.0
1979-07-24 19:36:33.760 ,1,1,3.,24.0,0.,24.0,0.,24.0,0.,24.0
1979-07-24 19:36:57.760 ,2,1,5.,24.0,0.,24.0,0.,24.0,0.,24.0
1979-07-24 19:37:21.760 ,6,1,,0,,0,,0,,0
1979-07-24 19:37:45.760 ,5,1,12.,24.0,0.,24.0,0.,24.0,0.,24.0
1979-07-24 19:38:09.760 ,1,1,0.,24.0,0.,24.0,1.,24.0,0.,24.0
1979-07-24 19:38:33.760 ,2,1,3.,24.0,0.,24.0,0.,24.0,0.,24.0
1979-07-24 19:38:57.760 ,6,1,3.,24.0,2.,24.0,1.,24.0,0.,24.0
1979-07-24 19:39:21.760 ,5,1,14.,24.0,0.,24.0,0.,24.0,0.,24.0
1979-07-24 19:39:45.760 ,1,1,1.,24.0,1.,24.0,0.,24.0,0.,24.0
1979-07-24 19:40:09.760 ,2,1,7.,24.0,1.,24.0,1.,24.0,0.,24.0
1979-07-24 19:40:33.760 ,6,1,3.,24.0,0.,24.0,0.,24.0,0.,24.0
1979-07-24 19:40:57.760 ,5,1,13.,24.0,0.,24.0,1.,24.0,0.,24.0
1979-07-24 19:41:21.760 ,1,1,0.,24.0,1.,24.0,1.,24.0,0.,24.0
1979-07-24 19:41:45.760 ,0,0,3.,24.0,1.,24.0,1.,24.0,0.,24.0
1979-07-24 19:42:09.760 ,0,0,0.,24.0,0.,24.0,0.,24.0,0.,24.0
1979-07-24 19:42:33.760 ,5,1,19.,24.0,0.,24.0,1.,24.0,0.,24.0
1979-07-24 19:42:57.760 ,5,0,2.,24.0,0.,24.0,2.,24.0,0.,24.0
1979-07-24 19:43:21.760 ,4,1,3.,24.0,0.,24.0,1.,24.0,0.,24.0
1979-07-24 19:43:45.760 ,4,0,0.,24.0,0.,24.0,1.,24.0,0.,24.0
1979-07-24 19:44:09.760 ,3,1,0.,24.0,1.,24.0,0.,24.0,0.,24.0
1979-07-24 19:44:33.760 ,3,0,0.,24.0,0.,24.0,0.,24.0,0.,24.0
1979-07-24 19:44:57.760 ,2,1,0.,24.0,0.,24.0,1.,24.0,0.,24.0
1979-07-24 19:45:21.760 ,2,0,2.,24.0,0.,24.0,0.,24.0,0.,24.0
1979-07-24 19:45:45.760 ,1,1,3.,24.0,0.,24.0,2.,24.0,0.,24.0
1979-07-24 19:46:09.760 ,1,0,1.,24.0,0.,24.0,0.,24.0,0.,24.0
1979-07-24 19:46:33.760 ,0,1,3.,24.0,2.,24.0,1.,24.0,0.,24.0
1979-07-24 19:46:57.760 ,0,0,6.,24.0,1.,24.0,0.,24.0,0.,24.0
1979-07-24 19:47:21.760 ,0,1,8.,24.0,0.,24.0,2.,24.0,0.,24.0
1979-07-24 19:47:45.760 ,0,0,4.,24.0,3.,24.0,0.,24.0,0.,24.0
1979-07-24 19:48:33.760 ,1,0,2.,24.0,1.,24.0,1.,24.0,0.,24.0
1979-07-24 19:48:57.760 ,2,1,0.,24.0,1.,24.0,0.,24.0,0.,24.0
1979-07-24 19:49:21.760 ,2,0,1.,24.0,0.,24.0,2.,24.0,0.,24.0
1979-07-24 19:49:45.760 ,3,1,1.,24.0,1.,24.0,0.,24.0,0.,24.0
1979-07-24 19:50:09.760 ,3,0,0.,24.0,0.,24.0,0.,24.0,0.,24.0
1979-07-24 19:50:33.760 ,4,1,2.,24.0,0.,24.0,1.,24.0,0.,24.0
1979-07-24 19:50:57.760 ,4,0,3.,24.0,2.,24.0,0.,24.0,0.,24.0
1979-07-24 19:51:21.760 ,5,1,4.,24.0,1.,24.0,1.,24.0,0.,24.0
1979-07-24 19:51:45.760 ,5,0,1.,24.0,1.,24.0,0.,24.0,0.,24.0
1979-07-24 19:52:09.760 ,6,1,1.,24.0,1.,24.0,1.,24.0,0.,24.0
1979-07-24 19:52:33.760 ,6,0,5.,24.0,1.,24.0,1.,24.0,0.,24.0
1979-07-24 19:52:57.760 ,7,1,12.,24.0,0.,24.0,1.,24.0,0.,24.0
1979-07-24 19:53:21.760 ,7,0,32.,24.0,0.,24.0,0.,24.0,0.,24.0
1979-07-24 19:53:45.760 ,7,1,38.,24.0,0.,24.0,1.,24.0,0.,24.0
1979-07-24 19:54:09.760 ,7,0,27.,24.0,0.,24.0,0.,24.0,0.,24.0
1979-07-24 19:54:33.760 ,6,1,20.,24.0,0.,24.0,1.,24.0,0.,24.0
1979-07-24 19:54:57.760 ,6,0,4.,24.0,0.,24.0,2.,24.0,0.,24.0
1979-07-24 19:55:21.760 ,5,1,3.,24.0,1.,24.0,3.,24.0,0.,24.0
1979-07-24 19:55:45.760 ,5,0,2.,24.0,2.,24.0,0.,24.0,0.,24.0
1979-07-24 19:56:09.760 ,4,1,3.,24.0,0.,24.0,2.,24.0,0.,24.0
1979-07-24 19:56:33.760 ,4,0,0.,24.0,0.,24.0,2.,24.0,0.,24.0
1979-07-24 19:56:57.760 ,3,1,2.,24.0,0.,24.0,1.,24.0,0.,24.0
1979-07-24 19:57:21.760 ,3,0,0.,24.0,0.,24.0,1.,24.0,0.,24.0
1979-07-24 19:57:45.760 ,2,1,0.,24.0,1.,24.0,1.,24.0,0.,24.0
1979-07-24 19:58:09.760 ,2,0,6.,24.0,0.,24.0,0.,24.0,0.,24.0
1979-07-24 19:58:33.760 ,1,1,3.,24.0,0.,24.0,0.,24.0,0.,24.0
1979-07-24 19:58:57.760 ,1,0,3.,24.0,0.,24.0,0.,24.0,0.,24.0
1979-07-24 19:59:21.760 ,0,1,4.,24.0,0.,24.0,0.,24.0,0.,24.0
1979-07-24 19:59:45.760 ,0,0,1.,24.0,0.,24.0,1.,24.0,0.,24.0
1979-07-24 20:00:09.760 ,0,1,6.,24.0,3.,24.0,0.,24.0,0.,24.0
1979-07-24 20:00:33.760 ,0,0,11.,24.0,0.,24.0,1.,24.0,0.,24.0
1979-07-24 20:00:57.760 ,1,1,3.,24.0,1.,24.0,0.,24.0,0.,24.0
1979-07-24 20:01:21.760 ,1,0,1.,24.0,0.,24.0,0.,24.0,0.,24.0
1979-07-24 20:01:45.760 ,2,1,0.,24.0,0.,24.0,0.,24.0,0.,24.0
1979-07-24 20:02:09.760 ,2,0,1.,24.0,1.,24.0,1.,24.0,0.,24.0
1979-07-24 20:02:33.760 ,3,1,1.,24.0,0.,24.0,1.,24.0,0.,24.0
1979-07-24 20:02:57.760 ,3,0,1.,24.0,0.,24.0,1.,24.0,0.,24.0
1979-07-24 20:03:21.760 ,4,1,0.,24.0,0.,24.0,0.,24.0,0.,24.0
1979-07-24 20:03:45.760 ,4,0,1.,24.0,1.,24.0,1.,24.0,0.,24.0
1979-07-24 20:04:09.760 ,5,1,3.,24.0,0.,24.0,2.,24.0,0.,24.0
1979-07-24 20:04:33.760 ,5,0,1.,24.0,0.,24.0,1.,24.0,0.,24.0
1979-07-24 20:04:57.760 ,6,1,1.,24.0,0.,24.0,1.,24.0,0.,24.0
1979-07-24 20:05:21.760 ,6,0,1.,24.0,0.,24.0,2.,24.0,0.,24.0
1979-07-24 20:05:45.760 ,7,1,13.,24.0,1.,24.0,2.,24.0,0.,24.0
1979-07-24 20:06:09.760 ,7,0,31.,24.0,0.,24.0,0.,24.0,0.,24.0
1979-07-24 20:06:33.760 ,7,1,38.,24.0,0.,24.0,0.,24.0,0.,24.0
1979-07-24 20:06:57.760 ,7,0,39.,24.0,0.,24.0,2.,24.0,0.,24.0
1979-07-24 20:07:21.760 ,6,1,22.,24.0,0.,24.0,1.,24.0,0.,24.0
1979-07-24 20:07:45.760 ,6,0,3.,24.0,1.,24.0,1.,24.0,0.,24.0
1979-07-24 20:08:09.750 ,5,1,1.,24.0,0.,24.0,0.,24.0,0.,24.0
1979-07-24 20:08:33.760 ,5,0,0.,24.0,0.,24.0,2.,24.0,0.,24.0
1979-07-24 20:08:57.760 ,4,1,0.,24.0,0.,24.0,1.,24.0,0.,24.0
1979-07-24 20:09:21.760 ,4,0,0.,24.0,0.,24.0,1.,24.0,0.,24.0
1979-07-24 20:09:45.760 ,3,1,0.,24.0,0.,24.0,0.,24.0,0.,24.0
1979-07-24 20:10:09.760 ,3,0,1.,24.0,0.,24.0,2.,24.0,0.,24.0
1979-07-24 20:10:33.760 ,2,1,0.,24.0,1.,24.0,0.,24.0,0.,24.0
1979-07-24 20:10:57.760 ,2,0,3.,24.0,1.,24.0,0.,24.0,0.,24.0
1979-07-24 20:11:21.760 ,1,1,3.,24.0,2.,24.0,0.,24.0,0.,24.0
1979-07-24 20:11:45.760 ,1,0,2.,24.0,0.,24.0,0.,24.0,0.,24.0
1979-07-24 20:12:09.760 ,0,1,3.,24.0,0.,24.0,0.,24.0,0.,24.0
1979-07-24 20:12:33.760 ,0,0,5.,24.0,0.,24.0,0.,24.0,0.,24.0
1979-07-24 20:12:57.760 ,0,1,9.,24.0,2.,24.0,0.,24.0,0.,24.0
1979-07-24 20:13:21.760 ,0,0,6.,24.0,1.,24.0,1.,24.0,0.,24.0
1979-07-24 20:13:45.760 ,1,1,2.,24.0,0.,24.0,2.,24.0,0.,24.0
1979-07-24 20:14:09.760 ,1,0,4.,24.0,1.,24.0,1.,24.0,0.,24.0
1979-07-24 20:14:33.760 ,2,1,1.,24.0,1.,24.0,0.,24.0,0.,24.0
1979-07-24 20:14:57.760 ,2,0,1.,24.0,1.,24.0,0.,24.0,0.,24.0
1979-07-24 20:15:21.760 ,3,1,0.,24.0,0.,24.0,2.,24.0,0.,24.0
1979-07-24 20:15:45.760 ,3,0,0.,24.0,0.,24.0,0.,24.0,0.,24.0
1979-07-24 20:16:09.760 ,4,1,0.,24.0,0.,24.0,0.,24.0,0.,24.0
1979-07-24 20:16:33.760 ,4,0,0.,24.0,0.,24.0,1.,24.0,0.,24.0
1979-07-24 20:18:33.760 ,7,0,5.,24.0,0.,24.0,0.,24.0,0.,24.0
1979-07-24 20:18:57.760 ,7,0,30.,24.0,0.,24.0,2.,24.0,0.,24.0
1979-07-24 20:19:21.760 ,5,1,19.,24.0,0.,24.0,1.,24.0,0.,24.0
1979-07-24 20:19:45.760 ,1,1,2.,24.0,0.,24.0,0.,24.0,0.,24.0
1979-07-24 20:20:09.760 ,2,1,1.,24.0,1.,24.0,0.,24.0,0.,24.0
1979-07-24 20:20:33.760 ,6,1,0.,24.0,0.,24.0,1.,24.0,0.,24.0
1979-07-24 20:20:57.760 ,5,1,21.,24.0,0.,24.0,1.,24.0,0.,24.0
1979-07-24 20:21:21.760 ,1,1,3.,24.0,0.,24.0,2.,24.0,0.,24.0
1979-07-24 20:21:45.760 ,2,1,2.,24.0,1.,24.0,2.,24.0,0.,24.0
1979-07-24 20:22:09.760 ,6,1,2.,24.0,1.,24.0,1.,24.0,0.,24.0
1979-07-24 20:22:33.760 ,5,1,12.,24.0,0.,24.0,1.,24.0,0.,24.0
1979-07-24 20:22:57.760 ,1,1,1.,24.0,0.,24.0,3.,24.0,0.,24.0
1979-07-24 20:23:21.760 ,2,1,3.,24.0,2.,24.0,1.,24.0,0.,24.0
1979-07-24 20:23:45.760 ,6,1,1.,24.0,0.,24.0,0.,24.0,0.,24.0
1979-07-24 20:24:09.760 ,5,1,18.,24.0,0.,24.0,0.,24.0,0.,24.0
1979-07-24 20:24:33.760 ,1,1,1.,24.0,0.,24.0,0.,24.0,0.,24.0
1979-07-24 20:24:57.750 ,2,1,5.,24.0,0.,24.0,2.,24.0,0.,24.0
1979-07-24 20:25:21.750 ,6,1,1.,24.0,0.,24.0,2.,24.0,0.,24.0
1979-07-24 20:25:45.750 ,5,1,11.,24.0,0.,24.0,0.,24.0,0.,24.0
1979-07-24 20:26:09.750 ,1,1,0.,24.0,1.,24.0,0.,24.0,0.,24.0
1979-07-24 20:26:33.750 ,2,1,1.,24.0,1.,24.0,1.,24.0,0.,24.0
1979-07-24 20:26:57.750 ,6,1,0.,24.0,0.,24.0,0.,24.0,0.,24.0
1979-07-24 20:27:21.750 ,5,1,21.,24.0,0.,24.0,1.,24.0,0.,24.0
1979-07-24 20:27:45.750 ,1,1,1.,24.0,0.,24.0,0.,24.0,0.,24.0
1979-07-24 20:28:09.750 ,2,1,2.,24.0,1.,24.0,0.,24.0,0.,24.0
1979-07-24 20:28:33.750 ,6,1,1.,24.0,0.,24.0,0.,24.0,0.,24.0
1979-07-24 20:28:57.750 ,5,1,15.,24.0,0.,24.0,0.,24.0,0.,24.0
1979-07-24 20:29:21.750 ,1,1,0.,24.0,0.,24.0,0.,24.0,0.,24.0
1979-07-24 20:29:45.750 ,0,0,2.,24.0,0.,24.0,0.,24.0,0.,24.0
1979-07-24 20:30:09.750 ,0,0,0.,24.0,1.,24.0,1.,24.0,0.,24.0
1979-07-24 20:30:33.750 ,5,1,10.,24.0,0.,24.0,2.,24.0,0.,24.0
1979-07-24 20:30:57.750 ,5,0,0.,24.0,0.,24.0,1.,24.0,0.,24.0
1979-07-24 20:31:21.750 ,4,1,1.,24.0,0.,24.0,1.,24.0,0.,24.0
1979-07-24 20:31:45.750 ,4,0,0.,24.0,0.,24.0,2.,24.0,0.,24.0
1979-07-24 20:32:09.750 ,3,1,1.,24.0,0.,24.0,1.,24.0,0.,24.0
1979-07-24 20:32:33.750 ,3,0,1.,24.0,0.,24.0,0.,24.0,0.,24.0
1979-07-24 20:32:57.750 ,2,1,1.,24.0,0.,24.0,0.,24.0,0.,24.0
1979-07-24 20:33:21.750 ,2,0,1.,24.0,0.,24.0,0.,24.0,0.,24.0
1979-07-24 20:33:45.750 ,1,1,0.,24.0,0.,24.0,1.,24.0,0.,24.0
1979-07-24 20:34:09.750 ,1,0,1.,24.0,0.,24.0,1.,24.0,0.,24.0
1979-07-24 20:34:33.750 ,0,1,0.,24.0,2.,24.0,1.,24.0,0.,24.0
1979-07-24 20:34:57.750 ,0,0,5.,24.0,1.,24.0,0.,24.0,0.,24.0
1979-07-24 20:35:21.750 ,0,1,3.,24.0,3.,24.0,0.,24.0,0.,24.0
1979-07-24 20:35:45.750 ,0,0,3.,24.0,1.,24.0,0.,24.0,0.,24.0